Location: �perlecques
(50.8057°N, 2.1521°E)
Time: 12:15:21
(UTC+00:00)

CAS-6 - Visible Passes

Search period start: 20 September 2021 00:00
Search period end: 30 September 2021 00:00
Orbit: 614 x 635 km, 97.9° (Epoch: 20 September)

Date Brightness Start Highest point End Pass type
(mag) Time Alt. Az. Time Alt. Az. Time Alt. Az.
20 Sep ? 20:20:47 12° NE 20:20:47 12° NE 20:21:51 10° NNE visible
20 Sep ? 21:58:03 23° NNW 21:58:03 23° NNW 21:59:43 10° NNW visible
21 Sep ? 20:39:47 16° NNE 20:39:47 16° NNE 20:41:15 10° NNE visible
21 Sep ? 22:17:03 19° NNW 22:17:03 19° NNW 22:18:23 10° NNW visible
22 Sep ? 20:58:47 18° NNE 20:58:47 18° NNE 21:00:21 10° N visible
22 Sep ? 22:36:03 15° NNW 22:36:03 15° NNW 22:36:58 10° NNW visible
23 Sep ? 21:17:47 20° NNE 21:17:47 20° NNE 21:19:19 10° N visible
23 Sep ? 22:55:03 12° NW 22:55:03 12° NW 22:55:24 10° NNW visible
24 Sep ? 21:36:47 20° N 21:36:47 20° N 21:38:10 10° N visible
25 Sep ? 20:18:31 11° NE 20:18:31 11° NE 20:18:56 10° NNE visible
25 Sep ? 21:55:47 18° N 21:55:47 18° N 21:56:56 10° NNW visible
26 Sep ? 20:37:31 13° NNE 20:37:31 13° NNE 20:38:24 10° NNE visible
26 Sep ? 22:14:47 15° NNW 22:14:47 15° NNW 22:15:37 10° NNW visible
27 Sep ? 20:56:31 15° NNE 20:56:31 15° NNE 20:57:32 10° N visible
27 Sep ? 22:33:47 12° NNW 22:33:47 12° NNW 22:34:13 10° NNW visible
28 Sep ? 21:15:31 16° N 21:15:31 16° N 21:16:31 10° N visible
29 Sep ? 21:34:31 15° N 21:34:31 15° N 21:35:23 10° N visible
